| time (UTC) | temp F | wind direction | speed knots | gust knots | rain 1hr in | rain 24hr in | rain mn in | humidity % | barometer mb |
| 20260509131555 | 54 | 0 | 0.0 | 2.6 | 0.00 | 0.00 | 0.00 | 92 | 1011.9 |
| 20260509130051 | 53 | 0 | 0.0 | 1.7 | 0.00 | 0.00 | 0.00 | 93 | 1011.9 |
| 20260509124546 | 52 | 0 | 0.0 | 0.0 | 0.00 | 0.00 | 0.00 | 92 | 1012.1 |
| 20260509123051 | 52 | 0 | 0.0 | 0.0 | 0.00 | 0.00 | 0.00 | 92 | 1012.1 |
| 20260509121601 | 52 | 0 | 0.0 | 7.0 | 0.00 | 0.00 | 0.00 | 92 | 1012.1 |
| 20260509120047 | 51 | 0 | 0.0 | 0.9 | 0.00 | 0.00 | 0.00 | 93 | 1011.6 |
| 20260509114547 | 51 | 0 | 0.0 | 0.0 | 0.00 | 0.00 | 0.00 | 93 | 1012.2 |
| 20260509113055 | 51 | 0 | 0.0 | 0.0 | 0.00 | 0.00 | 0.00 | 94 | 1012.5 |
| 20260509111546 | 50 | 0 | 0.0 | 0.0 | 0.00 | 0.00 | 0.00 | 95 | 1012.5 |
| 20260509110054 | 50 | 0 | 0.0 | 0.0 | 0.00 | 0.00 | 0.00 | 96 | 1012.3 |
| 20260509104547 | 50 | 0 | 0.0 | 0.0 | 0.00 | 0.00 | 0.00 | 95 | 1012.0 |
| 20260509103049 | 50 | 0 | 0.0 | 0.0 | 0.00 | 0.00 | 0.00 | 95 | 1012.1 |
| 20260509101550 | 50 | 0 | 0.0 | 0.0 | 0.00 | 0.00 | 0.00 | 95 | 1011.8 |
| 20260509100047 | 50 | 0 | 0.0 | 0.0 | 0.00 | 0.00 | 0.00 | 95 | 1011.8 |
| 20260509094551 | 50 | 0 | 0.0 | 0.0 | 0.00 | 0.00 | 0.00 | 95 | 1011.7 |
| 20260509093047 | 50 | 0 | 0.0 | 0.0 | 0.00 | 0.00 | 0.00 | 95 | 1011.9 |
| 20260509091547 | 50 | 0 | 0.0 | 0.0 | 0.00 | 0.00 | 0.00 | 94 | 1011.9 |
| 20260509084546 | 50 | 0 | 0.0 | 0.0 | 0.00 | 0.00 | 0.00 | 94 | 1011.8 |
| 20260509083057 | 50 | 0 | 0.0 | 0.0 | 0.00 | 0.00 | 0.00 | 94 | 1011.9 |
| 20260509081551 | 50 | 0 | 0.0 | 0.0 | 0.00 | 0.00 | 0.00 | 93 | 1012.0 |
| 20260509080053 | 50 | 0 | 0.0 | 0.0 | 0.00 | 0.00 | 0.00 | 93 | 1012.0 |
| 20260509074546 | 50 | 0 | 0.0 | 0.0 | 0.00 | 0.00 | 0.00 | 93 | 1012.2 |
| 20260509073047 | 50 | 0 | 0.0 | 0.0 | 0.00 | 0.00 | 0.00 | 92 | 1012.1 |
| 20260509071541 | 50 | 0 | 0.0 | 0.0 | 0.00 | 0.00 | 0.00 | 91 | 1011.9 |
| 20260509070045 | 50 | 0 | 0.0 | 0.0 | 0.00 | 0.00 | 0.00 | 90 | 1011.9 |
| 20260509064547 | 50 | 0 | 0.0 | 0.0 | 0.00 | 0.01 | 0.00 | 90 | 1012.1 |
| 20260509063052 | 50 | 0 | 0.0 | 0.0 | 0.00 | 0.01 | 0.00 | 89 | 1012.2 |
| 20260509061546 | 50 | 0 | 0.0 | 0.0 | 0.00 | 0.01 | 0.00 | 88 | 1012.2 |
| 20260509060055 | 50 | 0 | 0.0 | 0.0 | 0.00 | 0.01 | 0.00 | 86 | 1012.3 |
| 20260509054549 | 50 | 0 | 0.0 | 0.0 | 0.00 | 0.01 | 0.00 | 85 | 1012.8 |
| 20260509053119 | 50 | 0 | 0.0 | 0.0 | 0.00 | 0.01 | 0.00 | 83 | 1012.5 |
| 20260509051546 | 50 | 0 | 0.0 | 0.0 | 0.00 | 0.01 | 0.00 | 82 | 1012.8 |
| 20260509050048 | 50 | 0 | 0.0 | 0.0 | 0.00 | 0.01 | 0.00 | 81 | 1012.6 |
| 20260509044547 | 50 | 0 | 0.0 | 0.0 | 0.00 | 0.01 | 0.00 | 81 | 1012.6 |
| 20260509043103 | 50 | 0 | 0.0 | 0.0 | 0.00 | 0.01 | 0.00 | 81 | 1012.6 |
| 20260509041559 | 50 | 0 | 0.0 | 0.0 | 0.00 | 0.01 | 0.00 | 81 | 1012.7 |
| 20260509040056 | 51 | 0 | 0.0 | 0.0 | 0.00 | 0.01 | 0.00 | 80 | 1012.8 |
| 20260509034602 | 52 | 0 | 0.0 | 0.0 | 0.00 | 0.01 | 0.01 | 78 | 1012.8 |
| 20260509033049 | 52 | 0 | 0.0 | 0.0 | 0.00 | 0.01 | 0.01 | 77 | 1012.9 |
| 20260509031602 | 52 | 0 | 0.0 | 0.0 | 0.00 | 0.01 | 0.01 | 78 | 1013.1 |
| 20260509030052 | 52 | 0 | 0.0 | 0.0 | 0.00 | 0.01 | 0.01 | 78 | 1012.9 |
| 20260509024545 | 52 | 0 | 0.0 | 0.0 | 0.00 | 0.01 | 0.01 | 78 | 1012.9 |
| 20260509023041 | 52 | 0 | 0.0 | 0.0 | 0.00 | 0.01 | 0.01 | 78 | 1012.7 |
| 20260509021547 | 52 | 0 | 0.0 | 0.0 | 0.00 | 0.01 | 0.01 | 78 | 1012.6 |
| 20260509020055 | 52 | 0 | 0.0 | 0.0 | 0.00 | 0.01 | 0.01 | 77 | 1012.4 |
| 20260509014544 | 52 | 0 | 0.0 | 0.0 | 0.00 | 0.01 | 0.01 | 76 | 1012.2 |
| 20260509013052 | 53 | 0 | 0.0 | 0.0 | 0.00 | 0.01 | 0.01 | 75 | 1012.0 |
| 20260509011556 | 53 | 0 | 0.0 | 0.0 | 0.00 | 0.01 | 0.01 | 71 | 1011.9 |
| 20260509010055 | 53 | 0 | 0.0 | 0.0 | 0.00 | 0.01 | 0.01 | 72 | 1011.8 |
| 20260509004549 | 53 | 0 | 0.0 | 0.0 | 0.00 | 0.01 | 0.01 | 71 | 1011.6 |
| 20260509003048 | 54 | 0 | 0.0 | 0.0 | 0.00 | 0.01 | 0.01 | 69 | 1011.4 |
| 20260509001547 | 54 | 0 | 0.0 | 0.0 | 0.00 | 0.01 | 0.01 | 67 | 1011.3 |
| 20260509000047 | 55 | 0 | 0.0 | 0.0 | 0.00 | 0.01 | 0.01 | 65 | 1011.4 |
| 20260508234547 | 56 | 0 | 0.0 | 0.0 | 0.00 | 0.01 | 0.01 | 63 | 1011.4 |
| 20260508233044 | 57 | 0 | 0.0 | 0.0 | 0.00 | 0.01 | 0.01 | 61 | 1011.2 |
| 20260508231550 | 57 | 0 | 0.0 | 2.6 | 0.00 | 0.01 | 0.01 | 61 | 1011.2 |
| 20260508230057 | 57 | 0 | 0.0 | 2.6 | 0.00 | 0.01 | 0.01 | 60 | 1011.2 |
| 20260508224546 | 57 | 0 | 0.0 | 3.5 | 0.00 | 0.01 | 0.01 | 60 | 1010.9 |
| 20260508223051 | 57 | 0 | 0.0 | 0.9 | 0.00 | 0.01 | 0.01 | 60 | 1011.0 |
| 20260508221551 | 57 | 0 | 0.0 | 7.0 | 0.00 | 0.01 | 0.01 | 59 | 1011.0 |
| 20260508220050 | 58 | 0 | 0.0 | 7.8 | 0.00 | 0.01 | 0.01 | 60 | 1011.0 |
| 20260508214547 | 58 | 253 | 2.6 | 7.0 | 0.00 | 0.01 | 0.01 | 60 | 1011.0 |
| 20260508213052 | 57 | 246 | 0.9 | 5.2 | 0.00 | 0.01 | 0.01 | 64 | 1011.2 |
| 20260508211546 | 56 | 0 | 0.9 | 4.3 | 0.00 | 0.01 | 0.01 | 63 | 1011.5 |
| 20260508210050 | 57 | 248 | 0.0 | 1.7 | 0.00 | 0.01 | 0.01 | 64 | 1011.4 |
| 20260508204548 | 56 | 0 | 0.0 | 8.7 | 0.00 | 0.01 | 0.01 | 63 | 1011.4 |
| 20260508203047 | 57 | 257 | 1.7 | 8.7 | 0.00 | 0.01 | 0.01 | 62 | 1011.3 |
| 20260508201550 | 57 | 266 | 0.9 | 9.6 | 0.00 | 0.01 | 0.01 | 62 | 1011.1 |
| 20260508200054 | 57 | 0 | 0.0 | 8.7 | 0.00 | 0.01 | 0.01 | 62 | 1011.3 |
| 20260508194554 | 58 | 0 | 0.0 | 3.5 | 0.00 | 0.01 | 0.01 | 63 | 1011.5 |
| 20260508193054 | 57 | 0 | 0.0 | 3.5 | 0.00 | 0.01 | 0.01 | 66 | 1011.7 |
| 20260508191553 | 55 | 0 | 0.0 | 1.7 | 0.00 | 0.01 | 0.01 | 67 | 1011.8 |
| 20260508190053 | 55 | 0 | 0.9 | 10.4 | 0.00 | 0.01 | 0.01 | 65 | 1011.9 |
| 20260508184549 | 56 | 274 | 5.2 | 16.5 | 0.00 | 0.01 | 0.01 | 58 | 1011.9 |
| 20260508183048 | 59 | 263 | 3.5 | 11.3 | 0.00 | 0.01 | 0.01 | 51 | 1011.3 |
| 20260508181548 | 60 | 0 | 1.7 | 11.3 | 0.00 | 0.01 | 0.01 | 53 | 1011.0 |
| 20260508180053 | 57 | 282 | 0.9 | 14.8 | 0.00 | 0.01 | 0.01 | 54 | 1011.1 |
| 20260508174549 | 57 | 254 | 1.7 | 11.3 | 0.00 | 0.01 | 0.01 | 56 | 1011.1 |
| 20260508173047 | 59 | 246 | 1.7 | 12.2 | 0.00 | 0.01 | 0.01 | 52 | 1011.0 |
| 20260508171554 | 59 | 275 | 4.3 | 15.6 | 0.00 | 0.01 | 0.01 | 52 | 1011.1 |
| 20260508170054 | 59 | 261 | 2.6 | 13.9 | 0.00 | 0.01 | 0.01 | 53 | 1011.1 |
| 20260508164550 | 57 | 258 | 8.7 | 18.2 | 0.00 | 0.01 | 0.01 | 51 | 1011.2 |
| 20260508163048 | 57 | 274 | 8.7 | 13.9 | 0.00 | 0.01 | 0.01 | 51 | 1011.4 |
| 20260508161547 | 58 | 279 | 5.2 | 16.5 | 0.00 | 0.01 | 0.01 | 50 | 1011.4 |
| 20260508160054 | 57 | 222 | 5.2 | 12.2 | 0.00 | 0.01 | 0.01 | 52 | 1011.5 |
| 20260508154542 | 56 | 250 | 2.6 | 13.9 | 0.00 | 0.01 | 0.01 | 52 | 1011.9 |
| 20260508153051 | 58 | 272 | 4.3 | 10.4 | 0.00 | 0.01 | 0.01 | 51 | 1011.7 |
| 20260508151548 | 57 | 0 | 0.0 | 7.8 | 0.00 | 0.01 | 0.01 | 53 | 1011.7 |
| 20260508150047 | 57 | 292 | 2.6 | 12.2 | 0.00 | 0.01 | 0.01 | 50 | 1011.6 |
| 20260508144545 | 55 | 275 | 4.3 | 11.3 | 0.00 | 0.01 | 0.01 | 54 | 1011.7 |
| 20260508143049 | 55 | 0 | 0.0 | 9.6 | 0.00 | 0.01 | 0.01 | 56 | 1011.9 |
| 20260508141542 | 55 | 0 | 0.9 | 8.7 | 0.00 | 0.01 | 0.01 | 59 | 1012.2 |
| 20260508140048 | 54 | 219 | 0.9 | 8.7 | 0.00 | 0.01 | 0.01 | 63 | 1012.2 |
| 20260508134548 | 54 | 257 | 0.9 | 7.8 | 0.00 | 0.01 | 0.01 | 63 | 1012.0 |
| 20260508133045 | 53 | 255 | 0.9 | 6.1 | 0.00 | 0.01 | 0.01 | 64 | 1011.9 |